FENGYUN 1C DEB

Satellite information

Favourite Embed

Satellite Type and Status

DEBRISIN ORBIT

Key statistics

Satellite FENGYUN 1C DEB at a glance.

Uptime

9715

Days in orbit

Revolutions

≈ 14.6

Per day

Orbit

SSO

Sun Synchronous Orbit

Inclination

99.0

Latest

Satellite identification and parameters

Extended collection of information and parameters for FENGYUN 1C DEB.

Object identification

Identified? True

Debris? True

Object name: FENGYUN 1C DEB

International designator: 1999-025BEQ

Object number (NORAD): 31046

Object ID (CCSDS): 31046

Country: PEOPLES REPUBLIC OF CHINA (PRC)

Current information (Y/N): Y

RCS size: SMALL

Orbital parameters

Period: 98.376 minutes

Inclination: 98.9676 deg

SMA: 7059.158 km

Apoapsis: 713.92 km

Periapsis: 648.126 km

RAAN: 105.9242 deg

Eccentricy: 0.00466016

Argument of periapsis: 104.6419 deg

Mean anomaly: 314.2186 deg

Mean motion: 14.63771809 rev/day

Mean motion (dot): 0.00033276 rev/day2

B* drag term: 0.0062637298 1/REarth

Two-line elements (TLE)

Creation date: Dec. 12, 2025, 10:14 a.m.

Reference frame: TEME

Reference center: EARTH

Epoch: Dec. 12, 2025, 6:39 a.m. UTC

TLE line 0: 0 FENGYUN 1C DEB

TLE line 1: 1 31046U 99025BEQ 25346.27757856 .00033276 00000-0 62637-2 0 9993

TLE line 2: 2 31046 98.9676 105.9242 0046602 104.6419 314.2186 14.63771809966368

Live tracking on map

Real-time ground track for satellite FENGYUN 1C DEB.

In-orbit conjunctions

A list of the most updated potential collisions computed for object FENGYUN 1C DEB.

Target Orbit TCA Probability of collision Miss distance Type
COSMOS 2251 DEB LEO 2025-02-12 13:23:47 0.0001287869 119.0 (m) DEBRIS
SL-16 DEB LEO 2024-08-24 12:40:13 0.0001034354 231.0 (m) DEBRIS

Associated space launch

Chinese polar orbiting meteorological satellite

FENGYUN 1C DEB was lifted into orbit during the mission ‘Long March 4B | Feng Yun 1C’, on board a Long March 4B space rocket.

The launch took place on May 10, 1999, 1:33 a.m. from Launch Complex 7.

For more information about the launch, click the button.

Launch to space Long March 4B | Feng Yun 1C
Long March 4B | Feng Yun 1C

Agency: N/A

Status: Launch Successful

Launch date: May 10, 1999, 1:33 a.m. UTC

Rocket: Long March 4B

Launch pad: Launch Complex 7

Location: Taiyuan Satellite Launch Center, People's Republic of China

...

Latest news about this satellite

There are no fresh news available about this satellite. Check back as we update our databases every day.


Newsletter sign-up

Weekly statistics, charts and insights to help you stay on top of the space industry.